GW4332 Weather Reports


time (UTC)temp
C
wind
direction
speed
KPH
gust
KPH
rain 1hr
cm
rain 24hr
cm
rain mn
cm
humidity
%
barometer
mb
20260510132029 15 18 19.3 30.6 0.00 0.00 0.00 65 1014.1
20260510131030 16 22 17.7 30.6 0.00 0.00 0.00 64 1014.1
20260510130030 15 7 19.3 32.2 0.00 0.00 0.00 64 1014.3
20260510125030 15 17 17.7 30.6 0.00 0.00 0.00 62 1014.5
20260510124030 15 13 17.7 29.0 0.00 0.00 0.00 63 1014.6
20260510123030 15 5 17.7 29.0 0.00 0.00 0.00 64 1014.8
20260510122029 15 6 17.7 29.0 0.00 0.00 0.00 67 1014.8
20260510121030 15 2 16.1 27.4 0.00 0.00 0.00 66 1014.9
20260510120030 14 4 19.3 30.6 0.00 0.00 0.00 67 1014.9
20260510115030 14 343 19.3 30.6 0.00 0.00 0.00 69 1014.9
20260510114030 14 352 20.9 30.6 0.00 0.00 0.00 70 1014.9
20260510113030 13 350 22.5 32.2 0.00 0.00 0.00 71 1015.1
20260510112030 14 354 19.3 32.2 0.00 0.00 0.00 71 1015.2
20260510111030 13 339 19.3 30.6 0.00 0.00 0.00 71 1015.3
20260510110030 13 357 16.1 30.6 0.00 0.00 0.00 71 1015.2
20260510105029 13 353 19.3 29.0 0.00 0.00 0.00 72 1015.3
20260510104030 13 340 22.5 30.6 0.00 0.00 0.00 73 1015.5
20260510103030 13 355 17.7 30.6 0.00 0.00 0.00 73 1015.4
20260510102030 13 359 17.7 30.6 0.00 0.00 0.00 74 1015.5
20260510101030 13 349 22.5 32.2 0.00 0.00 0.00 74 1015.4
20260510100030 13 338 20.9 30.6 0.00 0.00 0.00 76 1015.4
20260510095029 13 336 22.5 30.6 0.00 0.00 0.00 77 1015.4
20260510094029 13 330 24.1 30.6 0.00 0.00 0.00 78 1015.4
20260510093030 12 333 24.1 30.6 0.00 0.00 0.00 78 1015.5
20260510092030 13 332 24.1 29.0 0.00 0.00 0.00 77 1015.6
20260510091030 13 338 20.9 30.6 0.00 0.00 0.00 72 1015.6
20260510090030 13 353 17.7 27.4 0.00 0.00 0.00 68 1015.7
20260510085030 12 341 20.9 27.4 0.00 0.00 0.00 68 1015.7
20260510084029 12 341 20.9 27.4 0.00 0.00 0.00 69 1015.6
20260510083029 12 344 16.1 27.4 0.00 0.00 0.00 68 1015.7
20260510082030 12 347 16.1 24.1 0.00 0.00 0.00 67 1015.8
20260510081030 12 32 14.5 30.6 0.00 0.00 0.00 66 1015.8
20260510080030 12 358 16.1 25.7 0.00 0.00 0.00 67 1015.8
20260510075030 12 13 14.5 25.7 0.00 0.00 0.00 67 1015.7
20260510074029 12 33 14.5 27.4 0.00 0.00 0.00 69 1015.7
20260510073029 12 22 16.1 25.7 0.00 0.00 0.00 71 1015.8
20260510072030 12 42 12.9 22.5 0.00 0.00 0.00 72 1015.8
20260510071030 12 16 14.5 22.5 0.00 0.00 0.00 73 1016.0
20260510070030 12 13 16.1 25.7 0.00 0.00 0.00 72 1016.0
20260510065030 12 28 16.1 24.1 0.00 0.00 0.00 71 1015.9
20260510064029 12 358 16.1 27.4 0.00 0.00 0.00 70 1015.9
20260510063029 12 23 16.1 29.0 0.00 0.00 0.00 70 1015.8
20260510062029 12 20 16.1 24.1 0.00 0.00 0.00 72 1015.7
20260510061030 12 13 16.1 25.7 0.00 0.00 0.00 73 1015.6
20260510060029 12 7 17.7 29.0 0.00 0.00 0.00 73 1015.8
20260510055030 12 10 14.5 24.1 0.00 0.00 0.00 73 1015.7
20260510054030 11 21 12.9 25.7 0.00 0.00 0.00 73 1015.7
20260510053029 11 30 14.5 27.4 0.00 0.00 0.00 72 1015.8
20260510052029 11 29 16.1 24.1 0.00 0.00 0.00 72 1015.8
20260510051029 11 13 14.5 25.7 0.00 0.00 0.00 72 1015.8
20260510050030 11 29 16.1 27.4 0.00 0.00 0.00 73 1015.6
20260510045030 11 10 14.5 25.7 0.00 0.00 0.00 73 1015.6
20260510044029 11 27 14.5 24.1 0.00 0.00 0.00 73 1015.5
20260510043029 11 24 12.9 24.1 0.00 0.00 0.00 74 1015.6
20260510042029 11 37 12.9 22.5 0.00 0.00 0.00 74 1015.6
20260510041029 11 21 14.5 27.4 0.00 0.00 0.00 76 1015.6
20260510040029 11 17 14.5 27.4 0.00 0.00 0.00 77 1015.6
20260510035030 11 13 12.9 24.1 0.00 0.00 0.00 77 1015.7
20260510034030 12 24 14.5 22.5 0.00 0.00 0.00 76 1015.8
20260510033029 11 33 11.3 20.9 0.00 0.00 0.00 76 1016.0
20260510032029 11 28 12.9 20.9 0.00 0.00 0.00 75 1016.0
20260510031030 12 18 11.3 20.9 0.00 0.00 0.00 76 1016.0
20260510030030 11 19 12.9 24.1 0.00 0.00 0.00 75 1016.0
20260510025030 11 6 14.5 22.5 0.00 0.00 0.00 77 1015.9
20260510024029 11 18 12.9 20.9 0.00 0.00 0.00 78 1015.9
20260510023030 12 23 14.5 20.9 0.00 0.00 0.00 79 1016.0
20260510022030 12 352 14.5 24.1 0.00 0.00 0.00 79 1016.0
20260510021029 12 352 12.9 20.9 0.00 0.00 0.00 79 1016.0
20260510020029 12 355 16.1 25.7 0.00 0.00 0.00 79 1016.1
20260510015030 12 15 14.5 22.5 0.00 0.00 0.00 78 1016.1
20260510014029 12 357 14.5 20.9 0.00 0.00 0.00 78 1016.1
20260510013030 12 5 11.3 20.9 0.00 0.00 0.00 78 1016.2
20260510012030 12 5 14.5 20.9 0.00 0.00 0.00 78 1016.1
20260510011030 12 351 12.9 20.9 0.00 0.00 0.00 78 1016.1
20260510010029 12 344 14.5 19.3 0.00 0.00 0.00 79 1016.2
20260510005030 12 348 12.9 19.3 0.00 0.00 0.00 80 1016.1
20260510004030 12 5 9.7 20.9 0.00 0.00 0.00 80 1016.2
20260510003029 12 22 6.4 12.9 0.00 0.00 0.00 79 1016.2
20260510002029 12 38 8.0 14.5 0.00 0.00 0.00 78 1016.3
20260510001029 12 37 6.4 9.7 0.00 0.00 0.00 77 1016.4
20260510000030 12 33 6.4 11.3 0.00 0.00 0.00 77 1016.4
20260509235030 12 40 6.4 12.9 0.00 0.00 0.00 76 1016.5
20260509234029 12 48 6.4 11.3 0.00 0.00 0.00 76 1016.6
20260509233030 12 48 6.4 9.7 0.00 0.00 0.00 75 1016.5
20260509232029 13 47 6.4 11.3 0.00 0.00 0.00 74 1016.5
20260509231030 12 51 6.4 12.9 0.00 0.00 0.00 73 1016.6
20260509230030 13 48 6.4 12.9 0.00 0.00 0.00 73 1016.6
20260509225029 13 35 8.0 12.9 0.00 0.00 0.00 72 1016.7
20260509224029 13 37 8.0 16.1 0.00 0.00 0.00 72 1016.8
20260509223030 13 44 9.7 16.1 0.00 0.00 0.00 72 1016.8
20260509222035 13 40 9.7 17.7 0.00 0.00 0.00 72 1016.9
20260509221030 13 33 11.3 17.7 0.00 0.00 0.00 72 1016.9
20260509220030 13 39 11.3 19.3 0.00 0.00 0.00 72 1016.9
20260509215029 13 26 9.7 17.7 0.00 0.00 0.00 73 1017.0
20260509214030 13 32 11.3 19.3 0.00 0.00 0.00 73 1016.9
20260509213030 13 37 12.9 19.3 0.00 0.00 0.00 73 1017.0
20260509212029 13 41 11.3 17.7 0.00 0.00 0.00 73 1017.1
20260509211030 13 34 11.3 17.7 0.00 0.00 0.00 72 1017.1
20260509210030 13 36 11.3 19.3 0.00 0.00 0.00 71 1017.0
20260509205030 14 37 11.3 17.7 0.00 0.00 0.00 71 1017.2
20260509204030 14 34 11.3 19.3 0.00 0.00 0.00 70 1017.1
20260509203030 14 40 9.7 17.7 0.00 0.00 0.00 70 1017.2
20260509202029 14 38 9.7 16.1 0.00 0.00 0.00 69 1017.2
20260509201030 15 33 9.7 17.7 0.00 0.00 0.00 69 1017.1
20260509200030 15 43 9.7 16.1 0.00 0.00 0.00 68 1017.1
20260509195030 15 41 9.7 16.1 0.00 0.00 0.00 68 1017.1
20260509194029 15 28 9.7 19.3 0.00 0.00 0.00 69 1017.1
20260509193029 15 24 11.3 19.3 0.00 0.00 0.00 70 1016.9
20260509192030 15 6 12.9 20.9 0.00 0.00 0.00 69 1016.8
20260509191030 15 357 14.5 20.9 0.00 0.00 0.00 68 1016.7
20260509190030 16 349 14.5 20.9 0.00 0.00 0.00 66 1016.7
20260509185029 16 357 11.3 16.1 0.00 0.00 0.00 65 1016.7
20260509184030 16 23 9.7 16.1 0.00 0.00 0.00 65 1016.7
20260509183030 16 357 11.3 17.7 0.00 0.00 0.00 65 1016.7
20260509182030 16 350 11.3 17.7 0.00 0.00 0.00 63 1016.6
20260509181030 16 1 9.7 17.7 0.00 0.00 0.00 64 1016.7
20260509180030 16 352 8.0 16.1 0.00 0.00 0.00 64 1016.6
20260509175029 16 333 12.9 17.7 0.00 0.00 0.00 65 1016.7
20260509174029 16 333 14.5 19.3 0.00 0.00 0.00 63 1016.7
20260509173030 16 331 16.1 20.9 0.00 0.00 0.00 62 1016.7
20260509172030 16 338 16.1 19.3 0.00 0.00 0.00 62 1016.8
20260509171029 16 339 14.5 20.9 0.00 0.00 0.00 62 1016.7
20260509170030 16 352 14.5 19.3 0.00 0.00 0.00 59 1016.7
20260509165030 16 349 12.9 20.9 0.00 0.00 0.00 61 1016.5
20260509164030 16 339 17.7 22.5 0.00 0.00 0.00 59 1016.5
20260509163029 16 352 16.1 22.5 0.00 0.00 0.00 58 1016.6
20260509162030 16 9 14.5 20.9 0.00 0.00 0.00 60 1016.5
20260509161030 17 0 14.5 22.5 0.00 0.00 0.00 60 1016.5
20260509160029 16 354 14.5 20.9 0.00 0.00 0.00 60 1016.4
20260509155030 16 343 16.1 22.5 0.00 0.00 0.00 60 1016.5
20260509154030 16 2 14.5 20.9 0.00 0.00 0.00 59 1016.5
20260509153030 16 352 14.5 22.5 0.00 0.00 0.00 60 1016.6
20260509152029 16 340 16.1 22.5 0.00 0.00 0.00 61 1016.6
20260509151030 16 343 17.7 22.5 0.00 0.00 0.00 61 1016.7
20260509150030 16 348 14.5 20.9 0.00 0.00 0.00 61 1017.0
20260509145030 16 340 17.7 24.1 0.00 0.00 0.00 60 1017.2
20260509144030 16 332 16.1 22.5 0.00 0.00 0.00 61 1017.3
20260509143029 16 1 11.3 22.5 0.00 0.00 0.00 60 1017.5
20260509142030 15 338 17.7 22.5 0.00 0.00 0.00 61 1017.4
20260509141029 16 331 19.3 24.1 0.00 0.00 0.00 60 1017.5
20260509140030 16 339 17.7 24.1 0.00 0.00 0.00 58 1017.6
20260509135030 16 341 16.1 24.1 0.00 0.00 0.00 58 1017.7
20260509134029 16 0 14.5 22.5 0.00 0.00 0.00 61 1017.7
20260509133030 15 335 17.7 24.1 0.00 0.00 0.00 61 1017.9